IRIDIUM 33 DEB

Satellite information

Favourite Embed

Satellite Type and Status

DEBRISIN ORBIT

Key statistics

Satellite IRIDIUM 33 DEB at a glance.

Uptime

10099

Days in orbit

Revolutions

≈ 15.3

Per day

Orbit

LEO

Low Earth Orbit

Inclination

86.4

Latest

Satellite identification and parameters

Extended collection of information and parameters for IRIDIUM 33 DEB.

Object identification

Identified? True

Debris? True

Object name: IRIDIUM 33 DEB

International designator: 1997-051RE

Object number (NORAD): 35632

Object ID (CCSDS): 35632

Country: UNITED STATES OF AMERICA (US)

Current information (Y/N): Y

RCS size: SMALL

Orbital parameters

Period: 94.357 minutes

Inclination: 86.3651 deg

SMA: 6865.545 km

Apoapsis: 513.662 km

Periapsis: 461.159 km

RAAN: 237.6869 deg

Eccentricy: 0.0038236

Argument of periapsis: 245.9096 deg

Mean anomaly: 113.8149 deg

Mean motion: 15.26125294 rev/day

Mean motion (dot): 0.00232306 rev/day2

B* drag term: 0.0085745 1/REarth

Two-line elements (TLE)

Creation date: April 14, 2025, 6:26 a.m.

Reference frame: TEME

Reference center: EARTH

Epoch: April 7, 2025, 2:34 a.m. UTC

TLE line 0: 0 IRIDIUM 33 DEB

TLE line 1: 1 35632U 97051RE 25097.10761633 .00232306 00000-0 85745-2 0 9998

TLE line 2: 2 35632 86.3651 237.6869 0038236 245.9096 113.8149 15.26125294823656

Live tracking on map

Real-time ground track for satellite IRIDIUM 33 DEB.

In-orbit conjunctions

A list of the most updated potential collisions computed for object IRIDIUM 33 DEB.

Target Orbit TCA Probability of collision Miss distance Type
OBJECT D SSO 2025-01-25 09:35:50 0.0004379664 283.0 (m) UNKNOWN
FENGYUN 1C DEB SSO 2024-11-13 19:11:04 0.0001182769 415.0 (m) DEBRIS
SL-14 R/B LEO 2024-08-19 20:30:51 0.0001549801 380.0 (m) ROCKET BODY

Associated space launch

Iridium provides global mobile telecommunications services using a constellation of 66 low earth orbit satellites in a 86.4° inclined orbit. Although 77 satellites were originally envisioned for the system and spawned the name based on the 77th element in the periodic table, the system has been scaled back. Motorola's Satellite Communications Group designed and manufactured the Iridium satellites with Lockheed Martin providing the LM-700A spacecraft buses.

IRIDIUM 33 DEB was lifted into orbit during the mission ‘Proton-K/17S40 | Iridium 27 to 33’, on board a Proton-K/17S40 space rocket.

The launch took place on Sept. 14, 1997, 1:36 a.m. from 81/23 (81L).

For more information about the launch, click the button.

Launch to space Proton-K/17S40 | Iridium 27 to 33
Proton-K/17S40 | Iridium 27 to 33

Agency: N/A

Status: Launch Successful

Launch date: Sept. 14, 1997, 1:36 a.m. UTC

Rocket: Proton-K/17S40

Launch pad: 81/23 (81L)

Location: Baikonur Cosmodrome, Republic of Kazakhstan

...

Latest news about this satellite

There are no fresh news available about this satellite. Check back as we update our databases every day.


Newsletter sign-up

Weekly statistics, charts and insights to help you stay on top of the space industry.